Regional Weather Roundup
Issued by NWS

Home | Current Version | Previous Version | Text Only | Print | Product List | Glossary On
Versions: 1 2 3 4 5 6 7 8 9 10 11 12 13 14 15 16 17 18 19 20 21 22 23 24 25 26 27 28 29 30 31 32 33 34 35 36 37 38 39 40 41 42 43 44 45 46 47 48 49 50
160
ASUS44 KFWD 112115
RWRTX
NORTH TEXAS HOURLY WEATHER ROUNDUP
NATIONAL WEATHER SERVICE FORT WORTH TX
300 PM CST THU FEB 11 2016

NOTE: "FAIR" INDICATES FEW OR NO CLOUDS BELOW 12,000 FEET WITH NO
SIGNIFICANT WEATHER AND/OR OBSTRUCTIONS TO VISIBILITY.

TXZ118-119-112200-
DALLAS/FORT WORTH METROPLEX

CITY           SKY/WX    TMP DP  RH WIND       PRES   REMARKS
DFW AIRPORT    MOSUNNY   74  30  19 N5        30.05F
DALLAS LOVE    MOSUNNY   74  29  19 NW8       30.05F
FTW MEACHAM    SUNNY     77  32  19 VRB7      30.05F
DAL-EXECUTIVE  SUNNY     76  33  21 NW6       30.04F
FTW-ALLIANCE   MOSUNNY   73  35  25 N6        30.06F
FTW-NAS-JRB    SUNNY     76  27  16 VRB3      30.06F
FTW-SPINKS     SUNNY     77  32  19 W5        30.06F
ARLINGTON      SUNNY     77  31  18 VRB3      30.05F
GRAND PRAIRIE  SUNNY     75  30  19 CALM      30.06F
ADDISON        SUNNY     72  32  23 S3        30.06
LANCASTER      SUNNY     77  26  15 NW3       30.05F
$$

TXZ091>094-102>105-117-120-121-131>134-112200-
NORTH CENTRAL TEXAS

CITY           SKY/WX    TMP DP  RH WIND       PRES   REMARKS
SHRMAN/DENISON SUNNY     71  35  26 N10       30.08F
GAINESVILLE    SUNNY     71  32  23 NE9       30.09F
BOWIE          SUNNY     72  29  21 NE6       30.07F
BRIDGEPORT     SUNNY     73  40  30 N9        30.09S
DECATUR        SUNNY     71  31  22 E9        30.07F
DENTON         SUNNY     72  35  25 N13       30.06F
MCKINNEY       SUNNY     73  37  27 VRB3      30.06F
GREENVILLE     SUNNY     73  32  21 NW3       30.06S
ROCKWALL       SUNNY     73  31  21 NW8       30.05F
TERRELL        SUNNY     75  33  21 SW8       30.05F
WAXAHACHIE     SUNNY     77  36  22 SW7       30.05F
CLEBURNE       SUNNY     77  34  20 CALM      30.06F
GRANBURY       SUNNY     78  33  19 N3        30.06F
$$

TXZ083>090-098>101-113>116-127>130-139>142-154-155-112200-
WESTERN NORTH TEXAS

CITY           SKY/WX    TMP DP  RH WIND       PRES   REMARKS
WICHITA FALLS  SUNNY     69  33  26 NE10      30.09F
WF-KICKAPOO    SUNNY     71  32  24 NE8G20    30.10F
VERNON         SUNNY     66  29  24 NE8       30.12F
ABILENE        SUNNY     70  29  21 CALM      30.09F
ABILENE-DYESS  SUNNY     69  33  25 VRB2      30.07F
BRECKENRIDGE   SUNNY     74  28  18 N5        30.07F
GRAHAM         SUNNY     73  37  26 N10       30.06S
MINERAL WELLS  SUNNY     76  29  17 VRB7      30.04F
STEPHENVILLE   SUNNY     80  27  14 CALM      30.08F
COMANCHE       SUNNY     80  33  18 SE5       30.06F
BROWNWOOD      SUNNY     81  25  12 CALM      30.06S
COLEMAN        SUNNY     81  27  13 W7        30.06F
$$

TXZ143>147-156>162-174-175-112200-
CENTRAL TEXAS

CITY           SKY/WX    TMP DP  RH WIND       PRES   REMARKS
WACO           SUNNY     82  33  17 S10       30.03F
WACO-TSTC      SUNNY     82  34  17 SE9       30.04F
WACO-MCGREGOR  SUNNY     84  34  16 W8        30.04F
HILLSBORO      SUNNY     77  34  21 CALM      30.05F
CORSICANA      SUNNY     77  36  22 W6        30.07F
MEXIA          SUNNY     78  39  24 S5        30.06F
HEARNE         SUNNY     82  36  19 S13G20    30.07F
CAMERON        SUNNY     81  37  20 SW15G22   30.06F
TEMPLE         SUNNY     83  37  19 SW10      30.05F
KILLEEN        SUNNY     82  31  16 S10       30.04F
KILLEEN-SKYLRK SUNNY     83  34  17 SW6       30.04F
FORT HOOD      SUNNY     83  31  15 SW10G17   30.03F
GATESVILLE     SUNNY     82  30  15 W7        30.06F
HAMILTON       SUNNY     81  32  17 W7        30.06F
LAMPASAS       SUNNY     81  33  17 SW8       30.04F
$$

TXZ095>097-106>112-122>126-135>138-148>153-164>167-112200-
EAST TEXAS

CITY           SKY/WX    TMP DP  RH WIND       PRES   REMARKS
PARIS          SUNNY     72  37  28 N8        30.07S
SULPHUR SPRNGS SUNNY     72  37  28 CALM      30.08S
MOUNT PLEASANT SUNNY     74  33  22 W8        30.06F
GILMER         SUNNY     76  33  20 SW3       30.04F
MINEOLA        SUNNY     77  34  20 SW9       30.05F
TYLER          SUNNY     77  32  19 W13       30.06F
LONGVIEW       SUNNY     76  34  21 SW10      30.05S
MARSHALL       SUNNY     75  28  17 SW7       30.06F
ATHENS         SUNNY     73  34  23 SW5       30.06F
PALESTINE      SUNNY     80  37  21 SW8       30.07F
JACKSONVILLE   SUNNY     77  35  21 W8        30.08F
HENDERSON      SUNNY     77  37  23 SW8       30.07S
CENTER         FAIR      80  33  18 W7        30.06F
NACOGDOCHES    SUNNY     77  39  25 SW10G16   30.07F
LUFKIN         SUNNY     78  38  23 SW9G21    30.08F
$$

SUPPLEMENTAL OBSERVATIONS (CENTRAL)

CITY           SKY/WX    TMP DP  RH WIND       PRES   REMARKS
LAKE TEXOMA      N/A     68  32  26 N7          N/A
CADDO GRASSLND   N/A     73  36  25 N6          N/A
PAT MAYSE LAKE   N/A     73  32  21 N3          N/A
GREENVILLE       N/A     73  37  27 N5          N/A
CEDAR HILL       N/A     79  32  18 N3          N/A
LAKE LIMESTONE   N/A     81  36  19 SW14        N/A
MCGREGOR         N/A     84  32  15 SW5         N/A
TEMPLE           N/A     84  34  16 SW5G18      N/A
$$

SUPPLEMENTAL OBSERVATIONS (WEST)

CITY           SKY/WX    TMP DP  RH WIND       PRES   REMARKS
MILLERS CREEK    N/A     70  32  24 NE9G17      N/A
POSSUM KINGDOM   N/A     75  32  20 N3          N/A
GRANBURY         N/A     79  32  18 N5          N/A
COMANCHE         N/A     81  30  16 SE3         N/A
HAMBY            N/A     72  30  21 N3          N/A
IVIE RESERVOIR   N/A     82  25  12 CALM        N/A
COLORADO BEND    N/A     84  30  14 W6          N/A
$$

SUPPLEMENTAL OBSERVATIONS (EAST)

CITY           SKY/WX    TMP DP  RH WIND       PRES   REMARKS
CLARKSVILLE      N/A     73  36  25 NE5         N/A
TEXARKANA        N/A     75  36  23 NW2         N/A
LINDEN           N/A     79  34  19 W3          N/A
CADDO LAKE       N/A     81  32  17 NW5G13      N/A
GILMER           N/A     81  32  17 W9          N/A
HENDERSON        N/A     79  36  21 SW13        N/A
N SABINE NF      N/A     81  39  22 MISG        N/A
S SABINE NF      N/A     81  39  22 S5          N/A
$$

SUPPLEMENTAL OBSERVATIONS ARE A COLLECTION OF AUTOMATED INSTRUMENTS
THAT ARE MAINTAINED BY A VARIETY OF FEDERAL AND STATE AGENCIES.
CERTAIN ELEMENTS...SUCH AS HUMIDITY VALUES AND SUSTAINED WIND
SPEEDS...MAY BE APPROXIMATED.





USA.gov is the U.S. government's official web portal to all federal, state and local government web resources and services.